{"data":{"norad_id":50482,"epoch":"2026-05-25T02:27:35.337312Z","epoch_age_seconds":76513,"freshness":"FRESH","line1":"1 50482U 21132P   26145.10249233 -.00000035  00000+0 -12119-3 0  9996","line2":"2 50482  87.9170 340.0248 0002049  75.3528 284.7831 13.18687191218592","mean_motion":13.18687191,"eccentricity":0.0002049,"inclination_deg":87.917,"raan_deg":340.0248,"arg_perigee_deg":75.3528,"mean_anomaly_deg":284.7831,"bstar":-0.00012119,"rev_number":21859,"period_min":109.19951371546,"perigee_km":1188.1879124355,"apogee_km":1191.2892278441,"semimajor_km":7567.8755701398,"source":"CELESTRAK","updated_at":"2026-05-25T13:38:22.530740Z"}}